TimeCDT,TemperatureF,Dew PointF,Humidity,Sea Level PressureIn,VisibilityMPH,Wind Direction,Wind SpeedMPH,Gust SpeedMPH,PrecipitationIn,Events,Conditions,WindDirDegrees,DateUTC
12:53 AM,44.1,33.1,65,30.28,10.0,South,5.8,-,N/A,,Clear,170,2011-10-29 05:53:00
1:53 AM,42.1,32.0,67,30.28,10.0,South,6.9,-,N/A,,Clear,170,2011-10-29 06:53:00
2:53 AM,42.1,32.0,67,30.27,10.0,SSW,6.9,-,N/A,,Clear,200,2011-10-29 07:53:00
3:53 AM,39.9,32.0,73,30.25,10.0,SSW,8.1,-,N/A,,Clear,210,2011-10-29 08:53:00
5:53 AM,39.9,32.0,73,30.23,10.0,South,5.8,-,N/A,,Clear,180,2011-10-29 10:53:00
6:53 AM,39.0,30.9,73,30.23,10.0,South,6.9,-,N/A,,Clear,190,2011-10-29 11:53:00
7:53 AM,37.9,28.9,70,30.24,10.0,SSE,6.9,-,N/A,,Clear,160,2011-10-29 12:53:00
8:53 AM,39.0,28.9,67,30.25,10.0,SSE,8.1,-,N/A,,Clear,160,2011-10-29 13:53:00
9:53 AM,48.9,32.0,52,30.23,10.0,SSE,6.9,-,N/A,,Clear,160,2011-10-29 14:53:00
10:53 AM,55.0,30.9,40,30.21,10.0,SSE,13.8,-,N/A,,Clear,160,2011-10-29 15:53:00
11:53 AM,60.1,30.0,32,30.18,10.0,SSE,12.7,-,N/A,,Clear,160,2011-10-29 16:53:00
12:53 PM,64.9,30.0,27,30.13,10.0,SSW,6.9,-,N/A,,Clear,210,2011-10-29 17:53:00
1:53 PM,66.9,28.9,24,30.08,10.0,SSE,8.1,-,N/A,,Clear,160,2011-10-29 18:53:00
2:53 PM,70.0,30.0,23,30.03,10.0,Variable,5.8,-,N/A,,Clear,0,2011-10-29 19:53:00
3:53 PM,72.0,28.9,20,29.99,10.0,Variable,4.6,-,N/A,,Clear,0,2011-10-29 20:53:00
4:53 PM,73.0,30.0,20,29.96,10.0,Calm,Calm,-,N/A,,Clear,0,2011-10-29 21:53:00
6:53 PM,69.1,30.9,24,29.95,10.0,East,5.8,-,N/A,,Clear,100,2011-10-29 23:53:00
7:53 PM,64.9,32.0,29,29.95,10.0,South,8.1,-,N/A,,Clear,170,2011-10-30 00:53:00
8:53 PM,62.1,32.0,32,29.96,10.0,South,8.1,-,N/A,,Clear,170,2011-10-30 01:53:00
9:53 PM,57.9,32.0,37,29.96,10.0,SSE,8.1,-,N/A,,Clear,160,2011-10-30 02:53:00
10:53 PM,57.0,32.0,39,29.95,10.0,South,10.4,-,N/A,,Clear,170,2011-10-30 03:53:00
11:53 PM,54.0,32.0,43,29.95,10.0,South,9.2,-,N/A,,Clear,170,2011-10-30 04:53:00